Hourly Data Report for November 13, 2019

All times are specified in Local Standard Time (LST). Add 1 hour to adjust for Daylight Saving Time where and when it is observed.

WOODSTOCK NEWBRIDGE
NEW BRUNSWICK
Current Station Operator: ECCC - MSC

46°09'08.000" N
67°32'34.000" W
154.00 m
8105603
71606
EWD

Download Data

Hourly Data (November 2019)
Hourly Data Report for November 13, 2019
TIME Temp Definition
°C
Dew Point Definition
°C
Rel Hum Definition
%
Wind Dir Definition
10's deg

Wind Spd Definition
km/h
Visibility Definition
km
Stn Press Definition
kPa
Hmdx Definition


Wind Chill Definition


Weather Definition


00:00 -7.1 -9.3 85 24 6   98.65   -10 LegendNANA
01:00 -7.7 -10.3 82 25 8   98.69   -12 LegendNANA
02:00 -8.4 -11.0 81 23 7   98.71   -12 LegendNANA
03:00 -8.6 -11.2 81 25 10   98.71   -14 LegendNANA
04:00 -9.1 -11.8 81 24 11   98.65   -15 LegendNANA
05:00 -9.5 -12.2 81 24 8   98.71   -14 LegendNANA
06:00 -10.1 -13.0 79 18 1   98.82   -11 LegendNANA
07:00 -10.6 -13.4 80 24 4   98.88   -13 LegendNANA
08:00 -10.9 -13.7 80 24 7   98.99   -15 LegendNANA
09:00 -9.6 -12.5 79 25 10   99.06   -15 LegendNANA
10:00 -9.0 -12.2 78 26 12   99.16   -15 LegendNANA
11:00 -8.0 -11.6 76 26 14   99.27   -14 LegendNANA
12:00 -7.2 -10.7 76 26 12   99.34   -13 LegendNANA
13:00 -6.2 -10.4 72 26 16   99.38   -12 LegendNANA
14:00 -5.4 -10.1 70 27 16   99.46   -11 LegendNANA
15:00 -6.1 -9.4 77 28 12   99.59   -11 LegendNANA
16:00 -5.8 -8.8 79 29 13   99.77   -11 LegendNANA
17:00 -6.9 -11.1 72 28 16   99.95   -13 LegendNANA
18:00 -7.4 -11.3 74 28 12   100.16   -13 LegendNANA
19:00 -8.3 -11.7 77 27 7   100.28   -12 LegendNANA
20:00 -8.8 -11.8 79 25 7   100.42   -13 LegendNANA
21:00 -10.2 -13.1 79 25 2   100.49   -11 LegendNANA
22:00 -11.3 -13.9 81 0 1   100.64   -12 LegendNANA
23:00 -11.1 -13.6 82 25 6   100.73   -15 LegendNANA

Notes on Data Quality.

Legend

  • E = Estimated
  • M = Missing
  • NA = Not Available
Date modified: